• In Czech Republic
  • List of Countries
  • For 7 days
  • Water Temperature
  • Satellite Maps
  • Weather Map
  • Weather Widgets
  • user-avatar
    Login

    Hourly Weather Tarin Kowt

    Today, 21 May, Monday

    Time Temperature Precipitation Wind Pressure Humidity
    00:00 +18°C° 0 mm 2 mps 617 mmHg 28%
    01:00 +17°C° 0 mm 2 mps 617 mmHg 31%
    02:00 +16°C° 0 mm 2 mps 617 mmHg 33%
    03:00 +16°C° 0 mm 2 mps 617 mmHg 35%
    04:00 +15°C° 0 mm 2 mps 616 mmHg 38%
    05:00 +16°C° 0 mm 2 mps 617 mmHg 36%
    06:00 +16°C° 0 mm 2 mps 618 mmHg 33%
    07:00 +17°C° 0 mm 2 mps 618 mmHg 30%
    08:00 +18°C° 0 mm 2 mps 618 mmHg 26%
    09:00 +19°C° 0 mm 2 mps 619 mmHg 22%
    10:00 +21°C° 0 mm 2 mps 619 mmHg 18%
    11:00 +21°C° 0 mm 2 mps 619 mmHg 16%
    12:00 +22°C° 0 mm 3 mps 619 mmHg 14%
    13:00 +24°C° 0 mm 3 mps 619 mmHg 12%
    14:00 +24°C° 0 mm 3 mps 619 mmHg 12%
    15:00 +23°C° 0 mm 4 mps 619 mmHg 11%
    16:00 +23°C° 0 mm 4 mps 619 mmHg 11%
    17:00 +24°C° 0 mm 3 mps 619 mmHg 12%
    18:00 +22°C° 0 mm 3 mps 619 mmHg 14%
    19:00 +22°C° 0 mm 3 mps 619 mmHg 15%
    20:00 +21°C° 0 mm 2 mps 619 mmHg 17%
    21:00 +20°C° 0 mm 2 mps 619 mmHg 19%
    22:00 +20°C° 0 mm 1 mps 619 mmHg 21%
    23:00 +20°C° 0 mm 1 mps 618 mmHg 21%

    Tomorrow, 22 May, Tuesday

    Time Temperature Precipitation Wind Pressure Humidity
    00:00 +19°C° 0 mm 1 mps 618 mmHg 21%
    01:00 +19°C° 0 mm 1 mps 618 mmHg 22%
    02:00 +18°C° 0 mm 1 mps 617 mmHg 23%
    03:00 +16°C° 0 mm 2 mps 617 mmHg 24%
    04:00 +16°C° 0 mm 2 mps 617 mmHg 26%
    05:00 +17°C° 0 mm 2 mps 618 mmHg 24%
    06:00 +18°C° 0 mm 2 mps 618 mmHg 22%
    07:00 +18°C° 0 mm 2 mps 619 mmHg 21%
    08:00 +20°C° 0 mm 2 mps 619 mmHg 19%
    09:00 +22°C° 0 mm 1 mps 620 mmHg 17%
    10:00 +23°C° 0 mm 1 mps 620 mmHg 15%
    11:00 +24°C° 0 mm 1 mps 620 mmHg 14%
    12:00 +24°C° 0 mm 2 mps 620 mmHg 12%
    13:00 +25°C° 0 mm 2 mps 620 mmHg 11%
    14:00 +25°C° 0 mm 2 mps 620 mmHg 11%
    15:00 +26°C° 0 mm 3 mps 619 mmHg 10%
    16:00 +26°C° 0 mm 3 mps 619 mmHg 10%
    17:00 +25°C° 0 mm 3 mps 619 mmHg 12%
    18:00 +25°C° 0 mm 2 mps 619 mmHg 13%
    19:00 +24°C° 0 mm 2 mps 619 mmHg 15%
    20:00 +23°C° 0 mm 2 mps 619 mmHg 17%
    21:00 +22°C° 0 mm 1 mps 619 mmHg 19%
    22:00 +22°C° 0 mm 1 mps 618 mmHg 21%
    23:00 +21°C° 0 mm 1 mps 618 mmHg 21%

    Day after tomorrow, 23 May, Wednesday

    Time Temperature Precipitation Wind Pressure Humidity
    00:00 +20°C° 0 mm 1 mps 618 mmHg 21%
    01:00 +20°C° 0 mm 1 mps 617 mmHg 21%
    02:00 +19°C° 0 mm 1 mps 617 mmHg 22%
    03:00 +18°C° 0 mm 2 mps 617 mmHg 23%
    04:00 +17°C° 0 mm 2 mps 617 mmHg 24%
    05:00 +18°C° 0 mm 2 mps 618 mmHg 23%
    06:00 +19°C° 0 mm 2 mps 618 mmHg 22%
    07:00 +20°C° 0 mm 2 mps 619 mmHg 21%
    08:00 +21°C° 0 mm 2 mps 619 mmHg 19%
    09:00 +23°C° 0 mm 2 mps 619 mmHg 17%
    10:00 +24°C° 0 mm 2 mps 620 mmHg 15%
    11:00 +25°C° 0 mm 2 mps 619 mmHg 14%
    12:00 +26°C° 0 mm 2 mps 619 mmHg 13%
    13:00 +27°C° 0 mm 1 mps 619 mmHg 12%
    14:00 +27°C° 0 mm 2 mps 619 mmHg 11%
    15:00 +27°C° 0 mm 2 mps 618 mmHg 11%
    16:00 +27°C° 0 mm 2 mps 618 mmHg 10%
    17:00 +27°C° 0 mm 2 mps 618 mmHg 12%
    18:00 +26°C° 0 mm 2 mps 618 mmHg 13%
    19:00 +25°C° 0 mm 1 mps 617 mmHg 15%
    20:00 +25°C° 0 mm 1 mps 617 mmHg 17%
    21:00 +24°C° 0 mm 1 mps 617 mmHg 19%
    22:00 +21°C° 0 mm 0 mps 617 mmHg 21%
    23:00 +20°C° 0 mm 0 mps 617 mmHg 21%

    24 May, Thursday

    Time Temperature Precipitation Wind Pressure Humidity
    00:00 +20°C° 0 mm 0 mps 617 mmHg 22%
    01:00 +19°C° 0 mm 0 mps 616 mmHg 23%
    02:00 +21°C° 0 mm 1 mps 616 mmHg 23%
    03:00 +20°C° 0 mm 1 mps 616 mmHg 22%
    04:00 +20°C° 0 mm 1 mps 616 mmHg 22%
    05:00 +21°C° 0 mm 1 mps 616 mmHg 21%
    06:00 +21°C° 0 mm 2 mps 617 mmHg 19%
    07:00 +23°C° 0 mm 2 mps 618 mmHg 18%
    08:00 +24°C° 0 mm 2 mps 618 mmHg 16%
    09:00 +25°C° 0 mm 2 mps 619 mmHg 15%
    10:00 +26°C° 0 mm 2 mps 619 mmHg 13%
    11:00 +27°C° 0 mm 2 mps 619 mmHg 12%
    12:00 +27°C° 0 mm 3 mps 619 mmHg 11%
    13:00 +28°C° 0 mm 3 mps 618 mmHg 11%
    14:00 +28°C° 0 mm 3 mps 618 mmHg 10%
    15:00 +28°C° 0 mm 3 mps 618 mmHg 10%
    16:00 +29°C° 0 mm 3 mps 618 mmHg 9%
    17:00 +28°C° 0 mm 3 mps 617 mmHg 11%
    18:00 +27°C° 0 mm 2 mps 617 mmHg 12%
    19:00 +26°C° 0 mm 2 mps 617 mmHg 13%
    20:00 +25°C° 0 mm 1 mps 617 mmHg 15%
    21:00 +24°C° 0 mm 1 mps 617 mmHg 17%
    22:00 +24°C° 0 mm 1 mps 617 mmHg 18%
    23:00 +23°C° 0 mm 1 mps 617 mmHg 19%

    25 May, Friday

    Time Temperature Precipitation Wind Pressure Humidity
    00:00 +22°C° 0 mm 1 mps 616 mmHg 19%
    01:00 +22°C° 0 mm 1 mps 616 mmHg 20%
    02:00 +21°C° 0 mm 1 mps 616 mmHg 21%
    03:00 +21°C° 0 mm 1 mps 616 mmHg 21%
    04:00 +20°C° 0 mm 1 mps 615 mmHg 22%
    05:00 +21°C° 0 mm 1 mps 616 mmHg 19%
    06:00 +23°C° 0 mm 1 mps 617 mmHg 17%
    07:00 +24°C° 0 mm 1 mps 618 mmHg 14%
    08:00 +25°C° 0 mm 1 mps 618 mmHg 13%
    09:00 +26°C° 0 mm 1 mps 619 mmHg 12%
    10:00 +28°C° 0 mm 1 mps 619 mmHg 12%
    11:00 +29°C° 0 mm 2 mps 619 mmHg 11%
    12:00 +29°C° 0 mm 4 mps 619 mmHg 11%
    13:00 +30°C° 0 mm 5 mps 619 mmHg 11%
    14:00 +32°C° 0 mm 5 mps 619 mmHg 11%
    15:00 +32°C° 0 mm 5 mps 619 mmHg 11%
    16:00 +32°C° 0 mm 6 mps 618 mmHg 11%
    17:00 +30°C° 0 mm 5 mps 618 mmHg 12%
    18:00 +29°C° 0 mm 4 mps 618 mmHg 13%
    19:00 +28°C° 0 mm 3 mps 618 mmHg 14%
    20:00 +27°C° 0 mm 3 mps 618 mmHg 15%
    21:00 +26°C° 0 mm 2 mps 618 mmHg 16%
    22:00 +25°C° 0 mm 2 mps 618 mmHg 18%
    23:00 +25°C° 0 mm 1 mps 618 mmHg 19%

    26 May, Saturday

    Time Temperature Precipitation Wind Pressure Humidity
    00:00 +24°C° 0 mm 1 mps 617 mmHg 19%
    01:00 +23°C° 0 mm 1 mps 617 mmHg 20%
    02:00 +23°C° 0 mm 1 mps 617 mmHg 20%
    03:00 +22°C° 0 mm 1 mps 616 mmHg 20%
    04:00 +21°C° 0 mm 2 mps 616 mmHg 21%
    05:00 +23°C° 0 mm 2 mps 617 mmHg 19%
    06:00 +24°C° 0 mm 2 mps 618 mmHg 18%
    07:00 +26°C° 0 mm 2 mps 619 mmHg 16%
    08:00 +27°C° 0 mm 1 mps 619 mmHg 15%
    09:00 +28°C° 0 mm 1 mps 620 mmHg 13%
    10:00 +29°C° 0 mm 1 mps 620 mmHg 12%
    11:00 +30°C° 0 mm 2 mps 620 mmHg 11%
    12:00 +31°C° 0 mm 3 mps 620 mmHg 10%
    13:00 +33°C° 0 mm 3 mps 620 mmHg 9%
    14:00 +33°C° 0 mm 4 mps 620 mmHg 9%
    15:00 +34°C° 0 mm 4 mps 619 mmHg 9%
    16:00 +34°C° 0 mm 4 mps 619 mmHg 9%
    17:00 +33°C° 0 mm 3 mps 619 mmHg 10%
    18:00 +31°C° 0 mm 3 mps 619 mmHg 12%
    19:00 +30°C° 0 mm 2 mps 619 mmHg 13%
    20:00 +29°C° 0 mm 2 mps 619 mmHg 14%
    21:00 +28°C° 0 mm 1 mps 619 mmHg 16%
    22:00 +27°C° 0 mm 1 mps 619 mmHg 17%
    23:00 +26°C° 0 mm 1 mps 618 mmHg 17%
    Show more